Regional Weather Roundup
Issued by NWS

Home | Current Version | Previous Version | Graphics & Text | Print | Product List | Glossary On
Versions: 1 2 3 4 5 6 7 8 9 10 11 12 13 14 15 16 17 18 19 20 21 22 23 24 25 26 27 28 29 30 31 32 33 34 35 36 37 38 39 40 41 42 43 44 45 46 47 48 49 50
000
ASUS45 KTFX 121710
RWRMT
MONTANA REGIONAL WEATHER ROUNDUP
NATIONAL WEATHER SERVICE GREAT FALLS MT
1000 AM MST FRI FEB 12 2016

NOTE: "FAIR" INDICATES FEW OR NO CLOUDS BELOW 12000 FEET WITH NO
SIGNIFICANT WEATHER AND/OR OBSTRUCTIONS TO VISIBILITY.

MTZ001>007-043-121800-
WEST OF THE DIVIDE

CITY           SKY/WX    TMP DP  RH WIND       PRES   REMARKS
KALISPELL      LGT RAIN  35  33  92 CALM      30.20S FOG
MISSOULA       CLOUDY    38  36  92 CALM      30.23S FOG
BUTTE          CLOUDY    34  32  92 S6        30.23F WCI  29
MULLAN PASS    CLOUDY    35  35 100 VRB3      30.18S
ANACONDA         N/A     46  36  66 S13       30.20F
DEER LODGE       N/A     36  36 100 CALM      30.22F
HAMILTON         N/A     36  36 100 NW5       30.21F VSB 0
PLAINS           N/A     40  37  89 CALM      30.19
THOMPSON FALLS   N/A     39  38  97 SW1       30.24F
$$

MTZ008-052>055-121800-
SOUTHWEST MONTANA

CITY           SKY/WX    TMP DP  RH WIND       PRES   REMARKS
BOZEMAN        CLOUDY    37  33  85 CALM      30.23F
DILLON         CLOUDY    39  31  72 SW14      30.23F WCI  31
ENNIS          SUNNY     43  34  70 S13       30.29F
TWIN BRIDGES     N/A     35  29  79 S2        30.21S
$$

MTZ009-010-012-014-046-048-049-054-121800-
EAST SLOPES AND CENTRAL MONTANA

CITY           SKY/WX    TMP DP  RH WIND       PRES   REMARKS
CUT BANK       CLOUDY    32  31  96 SE12      30.16F WCI  23
GREAT FALLS    CLOUDY    36  32  85 E9        30.17F WCI  29
MALMSTROM AFB  PTSUNNY   34  35 100 NE7       30.18F WCI  28
HELENA         CLOUDY    40  32  73 N3        30.21F
CHOTEAU          N/A     36  32  87 SE7       30.18F WCI  30
CONRAD           N/A     35  34  96 E10       30.17F WCI  27
$$

MTZ011-013-016-021-045-047-050-051-121800-
NORTH CENTRAL MONTANA

CITY           SKY/WX    TMP DP  RH WIND       PRES   REMARKS
HAVRE          CLOUDY    30  27  88 E20G29    30.26F WCI  17
LEWISTOWN      LGT SNOW  33  29  85 E12       30.23S FOG     WCI  24
N BAR RANCH    FOG       30  28  93 E7        30.26S VSB<1/4 WCI  23
CHINOOK          N/A     25  25 100 E20G26    30.31F WCI  11
$$

MTZ017>020-022>027-061-062-121800-
NORTHEAST MONTANA

CITY           SKY/WX    TMP DP  RH WIND       PRES   REMARKS
GLASGOW        CLOUDY    15   8  73 E21       30.43F WCI  -2
JORDAN           N/A     25  24  96 E10       30.37S WCI  15
SIDNEY         CLOUDY    12   3  67 NE8       30.53R WCI   1
WOLF POINT     CLOUDY    12   3  67 E14       30.51S WCI  -3
PLENTYWOOD       N/A      3  -6  66 E9        30.52S WCI -11
POPLAR           N/A      7   0  72 NE9       30.53S WCI  -7
SCOBEY           N/A      6 -11  45 NE6       30.43F WCI  -4
$$

MTZ028>42-056>058-121800-
SOUTHCENTRAL AND SOUTHEAST MONTANA

CITY           SKY/WX    TMP DP  RH WIND       PRES   REMARKS
BAKER          CLOUDY    22  16  78 E12       30.41S WCI  10
BILLINGS       CLOUDY    33  30  88 NE10      30.27F WCI  25
LIVINGSTON     CLOUDY    41  32  70 CALM      30.21F
MILES CITY     CLOUDY    28  23  81 NE13      30.38S WCI  17
EKALAKA          N/A     25  21  84 SE9       30.30  WCI  16
FORSYTH          N/A     30  27  86 E14       30.34F WCI  20
LAUREL           N/A     35  27  73 N5        30.23F
ROUNDUP          N/A     33  29  86 CALM      30.17F
$$

REGIONAL REPORTS...DAKOTAS

CITY           SKY/WX    TMP DP  RH WIND       PRES   REMARKS
WILLISTON      CLOUDY     7  -2  66 N5        30.56S
MINOT          CLOUDY     4  -8  57 N7        30.60S WCI  -8
DICKINSON      CLOUDY     7  -4  60 E10       30.47R WCI  -8
BEACH          CLOUDY    16  14  93 E12       30.47S WCI   3
CROSBY           N/A      5  -2  72 E7        30.58S WCI  -7
TIOGA            N/A      1  -4  78 E10       30.57F WCI -14
WATFORD CITY     N/A      9  -2  61 SE8       30.54S WCI  -4
BISMARCK       CLOUDY     9  -2  61 NE6       30.61R WCI  -1
GRAND FORKS    MOSUNNY   -4 -13  65 N17       30.66R WCI -26
FARGO          MOSUNNY    0 -11  59 N18       30.64R WCI -21
BUFFALO SD       N/A     22  18  85 E8        30.35R WCI  12
RAPID CITY     CLOUDY    28  26  92 E5        30.41R FOG
$$

REGIONAL REPORTS...WYOMING/IDAHO/WASHINGTON

CITY           SKY/WX    TMP DP  RH WIND       PRES   REMARKS
GILLETTE       CLOUDY    30  27  88 SE6       30.32F WCI  24
SHERIDAN       CLOUDY    35  29  78 NW3       30.29F
BUFFALO WY     CLOUDY    37  29  72 SE7       30.28F WCI  32
CODY           CLOUDY    41  23  48 CALM      30.24S
YELLOWSTONE LA   N/A     33  26  75 CALM      30.36S
IDAHO FALLS    CLOUDY    24  20  84 N5        30.37S
SALMON         CLOUDY    25  21  86 CALM      30.34F
BOISE          SUNNY     37  31  78 SE3       30.34F
SPOKANE        CLOUDY    40  38  93 CALM      30.18R
$$

REGIONAL REPORTS...ALBERTA

CITY           SKY/WX    TMP DP  RH WIND       PRES   REMARKS
EDMONTON       CLOUDY    18  12  79 SE13      30.22F WCI   4
CALGARY        FOG       27  25  93 SE13      30.10F VSB 1/4 WCI  16
LETHBRIDGE     CLOUDY    36  34  93 S9        30.13F FOG     WCI  29
MEDICINE HAT   FLURRIES  27  25  93 NE9       30.25F WCI  17
WATERTON GATE    N/A     43  34  70 SW12        N/A
CARDSTON         N/A     32  30  93 NE1         N/A
MILK RIVER       N/A     32  34 100 S21G29      N/A  WCI  20
ONEFOUR          N/A     27  25  93 SE17G23     N/A  WCI  14
$$

REGIONAL REPORTS...SASKATCHEWAN

CITY           SKY/WX    TMP DP  RH WIND       PRES   REMARKS
SWIFT CURRENT  CLOUDY     9   5  85 SE15G21   30.36F WCI  -8
REGINA         PTSUNNY    5  -2  72 SE8       30.56S WCI  -8
SASKATOON      PTSUNNY    0  -8  71 SE13      30.58F WCI -18
VAL MARIE        N/A     14  10  85 SE13        N/A  WCI   0
ROCKGLEN         N/A      3  -4  72 SE10        N/A  WCI -12
ASSINIBOIA       N/A     14   7  73 SE12G17     N/A  WCI   0
$$



USA.gov is the U.S. government's official web portal to all federal, state and local government web resources and services.